Regional Weather Roundup
Issued by NWS

Home | Current Version | Previous Version | Graphics & Text | Print | Product List | Glossary On
Versions: 1 2 3 4 5 6 7 8 9 10 11 12 13 14 15 16 17 18 19 20 21 22 23 24 25 26 27 28 29 30 31 32 33 34 35 36 37 38 39 40 41 42 43 44 45 46 47 48 49 50
000
ASUS43 KDTX 091210
RWRMI
MICHIGAN HOURLY REGIONAL WEATHER ROUNDUP
NATIONAL WEATHER SERVICE DETROIT/PONTIAC MI
ISSUED BY NATIONAL WEATHER SERVICE GRAND RAPIDS MI
700 AM EST FRI DEC 09 2016

NOTE: "FAIR" INDICATES FEW OR NO CLOUDS BELOW 12,000 FEET WITH NO
SIGNIFICANT WEATHER AND/OR OBSTRUCTION TO VISIBILITY.

MIZ047>049-052>055-059>063-066>070-074>076-081>083-091300-
SOUTHEAST LOWER MICHIGAN

CITY           SKY/WX    TMP DP  RH WIND       PRES   REMARKS
ADRIAN         FLURRIES  24  21  88 W7        30.35R WCI  16
6HR MIN TEMP:  23; 6HR MAX TEMP:  24; 6HR PCP: TRACE;

ALMA           CLEAR     25  20  83 W9        30.31S WCI  15
ANN ARBOR      CLOUDY    25  23  92 W8        30.32R WCI  16
BAD AXE        FLURRIES  26  20  79 NW5       30.27R WCI  20
DETROIT CITY   CLOUDY    26  23  88 W7        30.31R WCI  18
6HR MIN TEMP:  26; 6HR MAX TEMP:  27;

DETROIT        FLURRIES  27  23  85 SW8       30.33R WCI  19
6HR MIN TEMP:  25; 6HR MAX TEMP:  27; 6HR PCP: TRACE;

FLINT          CLOUDY    26  21  81 W10       30.30R WCI  16
6HR MIN TEMP:  25; 6HR MAX TEMP:  28;

GROSSE ILE     CLOUDY    26  22  85 W7        30.32R WCI  19
6HR MIN TEMP:  25; 6HR MAX TEMP:  26;

HILLSDALE      LGT SNOW  23  19  86 W9        30.32R WCI  13
HOWELL         CLOUDY    27  24  89 W9        30.30S WCI  17
6HR MIN TEMP:  26; 6HR MAX TEMP:  28;


CITY           SKY/WX    TMP DP  RH WIND       PRES   REMARKS
JACKSON        LGT SNOW  24  21  88 W9        30.33R FOG     WCI  14
6HR MIN TEMP:  23; 6HR MAX TEMP:  24; 6HR PCP: TRACE;

LANSING        CLOUDY    26  23  88 W8        30.33R WCI  18
6HR MIN TEMP:  26; 6HR MAX TEMP:  27; 6HR PCP: TRACE;

MASON          LGT SNOW  27  25  94 W5        30.32R WCI  21
MONROE         FLURRIES  26  23  89 W8        30.34R WCI  17
6HR MIN TEMP:  24; 6HR MAX TEMP:  26;

MT. CLEMENS    MOCLDY    28  22  78 W6        30.28R WCI  21
6HR MIN TEMP:  27; 6HR MAX TEMP:  29; 6HR PCP: TRACE;

PONTIAC        FLURRIES  26  22  84 W9        30.28R WCI  17
6HR MIN TEMP:  26; 6HR MAX TEMP:  27; 6HR PCP: TRACE;

PORT HOPE        N/A     28  17  63 NW17      30.24R WCI  16
6HR MIN TEMP:  28; 6HR MAX TEMP:  30;

PORT HURON     PTCLDY    25  23  93 W5        30.28R WCI  19
TRI CITIES     CLEAR     20  18  92 W9        30.30R WCI   9
6HR MIN TEMP:  18; 6HR MAX TEMP:  25;

YPSILANTI      CLOUDY    27  23  85 W9        30.33R WCI  18
6HR MIN TEMP:  26; 6HR MAX TEMP:  27; 6HR PCP: TRACE;

$$
MIZ043>046-050>051-056>058-064>065-071>073-077>080-091300-
SOUTHWEST LOWER MICHIGAN

CITY           SKY/WX    TMP DP  RH WIND       PRES   REMARKS
BATTLE CREEK   LGT SNOW  27  25  92 CALM      30.35R FOG
6HR MIN TEMP:  26; 6HR MAX TEMP:  27; 6HR PCP:  0.08;

BENTON HARBOR  CLOUDY    31  19  61 NW16G25   30.39R WCI  20
6HR MIN TEMP:  28; 6HR MAX TEMP:  32; 6HR PCP:  0.03;

BIG RAPIDS     CLOUDY    25  19  80 W6        30.30R WCI  18
6HR MIN TEMP:  24; 6HR MAX TEMP:  27;

COLDWATER      LGT SNOW  24  22  93 W8        30.35R WCI  14
6HR MIN TEMP:  22; 6HR MAX TEMP:  24;

HOLLAND        FLURRIES  30  20  66 NW10G18   30.36R WCI  21
6HR MIN TEMP:  30; 6HR MAX TEMP:  32; 6HR PCP:  0.02;

GRAND RAPIDS   CLOUDY    27  20  75 NW9       30.35R WCI  18
6HR MIN TEMP:  27; 6HR MAX TEMP:  29; 6HR PCP:  0.03;

KALAMAZOO      LGT SNOW  28  24  85 NW5       30.36R VSB 1   WCI  23
6HR MIN TEMP:  26; 6HR MAX TEMP:  28; 6HR PCP:  0.05;

MARSHALL       LGT SNOW  25  24  94 W5        30.34R WCI  20
6HR MIN TEMP:  23; 6HR MAX TEMP:  25;

MOUNT PLEASANT PTCLDY    23  18  81 W6        30.30R WCI  16
6HR MIN TEMP:  23; 6HR MAX TEMP:  26;

MUSKEGON       CLOUDY    30  17  58 NW13G20   30.37R WCI  20
6HR MIN TEMP:  30; 6HR MAX TEMP:  32; 6HR PCP:  0.01;

STURGIS        LGT SNOW  22  20  93 W7        30.36S WCI  14
6HR MIN TEMP:  21; 6HR MAX TEMP:  22;

$$
MIZ016>042-091300-
NORTHERN LOWER MICHIGAN

CITY           SKY/WX    TMP DP  RH WIND       PRES   REMARKS
ALPENA         CLOUDY    20  14  77 W6        30.27R WCI  12
6HR MIN TEMP:  18; 6HR MAX TEMP:  24;

BEAVER ISLAND  CLOUDY    25  16  68 CALM      30.29R
6HR MIN TEMP:  24; 6HR MAX TEMP:  27;

BELLAIRE       CLOUDY    23  22  95 CALM      30.29R
6HR MIN TEMP:  22; 6HR MAX TEMP:  28;

CADILLAC       FLURRIES  23  19  85 W7        30.25R WCI  14
CHARLEVOIX     MOCLDY    28  15  59 N13G18    30.30S WCI  17
6HR MIN TEMP:  27; 6HR MAX TEMP:  30;

GAYLORD        CLOUDY    20  15  81 CALM      30.23R
6HR MIN TEMP:  20; 6HR MAX TEMP:  24; 6HR PCP:  0.02;

HOUGHTON LAKE  LGT SNOW  23  19  85 N5        30.26R FOG     WCI  17
6HR MIN TEMP:  21; 6HR MAX TEMP:  25; 6HR PCP:  0.04;

MANISTEE       FLURRIES  26  16  65 NW17      30.33R WCI  13
OSCODA         CLEAR     16  13  88 MISG      30.27R
6HR MIN TEMP:  16; 6HR MAX TEMP:  24;

PELLSTON       CLOUDY    21  13  71 NW5       30.28R WCI  15
6HR MIN TEMP:  14; 6HR MAX TEMP:  23; 6HR PCP: TRACE;

TRAVERSE CITY  CLOUDY    26  20  77 W12       30.29R WCI  16
6HR MIN TEMP:  25; 6HR MAX TEMP:  29; 6HR PCP: TRACE;

LUDINGTON      CLOUDY    27  16  63 NW9G17    30.35R WCI  17
6HR MIN TEMP:  27; 6HR MAX TEMP:  30;

$$
MIZ007>008-015-091300-
EASTERN UPPER MICHIGAN

CITY           SKY/WX    TMP DP  RH WIND       PRES   REMARKS
KINROSS        FLURRIES  17  14  88 NE6       30.27R WCI   9
6HR MIN TEMP:  13; 6HR MAX TEMP:  17; 6HR PCP: TRACE;

MACKINAC ISLAN MOCLDY    21  16  82 N8        30.27R WCI  11
NEWBERRY       FLURRIES  19  18  93 W3        30.27R
6HR MIN TEMP:  10; 6HR MAX TEMP:  21;

S. S. MARIE    MOCLDY    17   8  67 NE3       30.27R
6HR MIN TEMP:  17; 6HR MAX TEMP:  21;

$$
MIZ004>006-011>014-085-091300-
CENTRAL UPPER MICHIGAN

CITY           SKY/WX    TMP DP  RH WIND       PRES   REMARKS
MANISTIQUE     LGT SNOW  19  19  98 W5        30.30S WCI  12
6HR MIN TEMP:  18; 6HR MAX TEMP:  22;

ESCANABA       MOCLDY    17  13  84 W8        30.35R WCI   7
6HR MIN TEMP:  17; 6HR MAX TEMP:  21;

MENOMINEE      PTCLDY    19  10  68 NW7       30.39R WCI  10
6HR MIN TEMP:  19; 6HR MAX TEMP:  23;

SAWYER-GWINN   PTCLDY    14  10  85 W9        30.30R WCI   2
$$
MIZ001>003-009>011-084-091300-
WESTERN UPPER MICHIGAN

CITY           SKY/WX    TMP DP  RH WIND       PRES   REMARKS
IRON MOUNTAIN  MOCLDY    17   8  67 NW14      30.33R WCI   3
6HR MIN TEMP:  16; 6HR MAX TEMP:  19;

HOUGHTON       LGT SNOW  20  14  77 N12       30.33S WCI   8
6HR MIN TEMP:  20; 6HR MAX TEMP:  21; 6HR PCP:  0.06;

COPPER HARBOR    N/A     24  18  77 NE23G29   30.34R WCI   9
6HR MIN TEMP:  24; 6HR MAX TEMP:  26; 6HR PCP:  0.01;

IRONWOOD       FLURRIES  18  10  73 W13G21    30.39S WCI   4
6HR MIN TEMP:  17; 6HR MAX TEMP:  19; 6HR PCP: TRACE;

$$

ABBREVIATIONS USED IN REMARKS
   TC - TEMPERATURE IN CELSIUS
  WCI - WIND CHILL INDEX
   HX - HEAT INDEX
  VSB - VISIBILITY





USA.gov is the U.S. government's official web portal to all federal, state and local government web resources and services.